EW9808 Weather Reports


time (UTC)temp
C
wind
direction
speed
KPH
gust
KPH
rain 1hr
cm
rain 24hr
cm
rain mn
cm
humidity
%
barometer
mb
20260507040032 13 333 6.4 17.7 0.03 0.48 0.48 1 1005.6
20260507034520 13 327 8.0 22.5 0.00 0.46 0.46 1 1005.5
20260507033015 14 349 9.7 20.9 0.00 0.46 0.46 1 1005.2
20260507031510 14 288 11.3 20.9 0.00 0.46 0.46 1 1004.9
20260507030005 14 351 11.3 29.0 0.00 0.46 0.46 1 1004.5
20260507024600 15 321 11.3 25.7 0.00 0.46 0.46 1 1004.3
20260507023056 15 337 9.7 22.5 0.00 0.46 0.46 1 1004.7
20260507021556 15 259 14.5 25.7 0.00 0.46 0.46 1 1004.4
20260507020051 15 252 6.4 17.7 0.03 0.46 0.46 1 1004.1
20260507014544 15 265 11.3 19.3 0.03 0.46 0.46 1 1004.3
20260507013045 15 225 11.3 20.9 0.03 0.46 0.46 1 1004.3
20260507011534 15 211 12.9 24.1 0.03 0.46 0.46 1 1004.3
20260507010030 15 263 9.7 20.9 0.00 0.43 0.43 1 1004.4
20260507004529 15 284 11.3 22.5 0.00 0.43 0.43 1 1004.4
20260507003026 15 265 11.3 25.7 0.00 0.43 0.43 1 1004.2
20260507001522 15 265 9.7 22.5 0.00 0.43 0.43 1 1004.2
20260507000013 15 228 12.9 32.2 0.00 0.43 0.43 1 1004.3
20260506234539 15 186 8.0 25.7 0.10 0.43 0.43 1 1004.0
20260506233031 15 282 8.0 24.1 0.13 0.43 0.43 1 1004.0
20260506231557 15 217 8.0 29.0 0.15 0.43 0.43 1 1003.9
20260506230055 15 232 12.9 24.1 0.20 0.43 0.43 1 1004.0
20260506224559 15 271 11.3 25.7 0.13 0.33 0.33 1 1004.1
20260506223040 15 232 9.7 30.6 0.13 0.30 0.30 1 1004.2
20260506221535 15 228 14.5 30.6 0.10 0.28 0.28 1 1004.2
20260506220036 15 248 9.7 30.6 0.05 0.23 0.23 1 1004.3
20260506214525 15 244 11.3 30.6 0.05 0.20 0.20 1 1004.5
20260506213021 15 218 11.3 25.7 0.03 0.18 0.18 1 1004.4
20260506211515 15 240 14.5 37.0 0.05 0.18 0.18 1 1004.7
20260506210017 15 239 16.1 33.8 0.05 0.18 0.18 1 1004.7
20260506204507 15 232 12.9 25.7 0.05 0.15 0.15 1 1005.0
20260506203035 15 227 11.3 29.0 0.05 0.15 0.15 1 1005.0
20260506201531 16 259 11.3 22.5 0.05 0.13 0.13 1 1005.0
20260506200023 16 239 12.9 29.0 0.08 0.13 0.13 1 1005.0
20260506194519 16 239 11.3 25.7 0.08 0.10 0.10 1 1005.0
20260506193015 17 226 14.5 25.7 0.10 0.10 0.10 1 1005.1
20260506191510 17 207 9.7 24.1 0.08 0.08 0.08 1 1005.1
20260506190002 17 267 11.3 32.2 0.05 0.05 0.05 1 1004.9
20260506184557 18 258 14.5 33.8 0.03 0.03 0.03 1 1005.2
20260506183100 19 269 16.1 41.8 0.00 0.00 0.00 4 1005.4
20260506181548 20 274 12.9 37.0 0.00 0.00 0.00 28 1005.5
20260506180048 21 316 22.5 43.5 0.00 0.00 0.00 44 1005.4
20260506174537 21 241 22.5 53.1 0.00 0.00 0.00 46 1005.3
20260506173032 22 280 35.4 51.5 0.00 0.00 0.00 48 1005.2
20260506171540 22 216 24.1 41.8 0.00 0.00 0.00 47 1005.2
20260506170059 22 238 12.9 45.1 0.00 0.00 0.00 46 1005.4
20260506164557 21 214 12.9 37.0 0.00 0.00 0.00 44 1005.6
20260506163045 21 252 16.1 37.0 0.00 0.00 0.00 43 1005.9
20260506161539 21 275 17.7 37.0 0.00 0.00 0.00 42 1006.0
20260506160034 21 254 16.1 30.6 0.00 0.00 0.00 40 1006.4
20260506154529 21 238 12.9 29.0 0.00 0.00 0.00 35 1006.7
20260506153055 20 228 16.1 29.0 0.00 0.00 0.00 30 1006.8
20260506151552 20 213 11.3 35.4 0.00 0.00 0.00 24 1007.1
20260506150050 20 247 12.9 38.6 0.00 0.00 0.00 19 1007.3
20260506144548 20 225 16.1 30.6 0.00 0.00 0.00 13 1007.6
20260506143036 19 238 24.1 40.2 0.00 0.00 0.00 10 1007.5
20260506141531 20 244 6.4 24.1 0.00 0.00 0.00 3 1007.2
20260506140029 19 238 20.9 33.8 0.00 0.00 0.00 1 1007.1
20260506134521 18 230 12.9 30.6 0.00 0.00 0.00 1 1007.2
20260506133038 18 214 12.9 25.7 0.00 0.00 0.00 1 1007.5
20260506131523 18 239 16.1 35.4 0.00 0.00 0.00 1 1007.9
20260506130011 18 254 17.7 33.8 0.00 0.00 0.00 1 1008.0
20260506124508 18 224 9.7 35.4 0.00 0.00 0.00 1 1007.9
20260506123005 17 255 14.5 32.2 0.00 0.00 0.00 1 1007.7
20260506121559 17 236 11.3 30.6 0.00 0.00 0.00 1 1008.0
20260506120052 17 254 14.5 29.0 0.00 0.00 0.00 1 1007.9
20260506114556 16 220 16.1 32.2 0.00 0.00 0.00 1 1008.1
20260506113049 16 236 16.1 25.7 0.00 0.00 0.00 1 1008.2
20260506111538 16 213 12.9 22.5 0.00 0.00 0.00 1 1008.5
20260506110035 16 234 16.1 29.0 0.00 0.00 0.00 1 1008.1
20260506104527 15 257 12.9 24.1 0.00 0.00 0.00 1 1008.2
20260506103027 15 234 12.9 25.7 0.00 0.00 0.00 1 1008.2
20260506101519 15 249 12.9 22.5 0.00 0.00 0.00 1 1008.1
20260506100023 15 198 12.9 25.7 0.00 0.00 0.00 1 1008.0
20260506094508 15 214 9.7 29.0 0.00 0.00 0.00 1 1008.2
20260506093004 15 238 11.3 25.7 0.00 0.00 0.00 1 1007.8
20260506091601 16 220 11.3 25.7 0.00 0.00 0.00 1 1008.0
20260506090055 16 231 14.5 29.0 0.00 0.00 0.00 1 1008.0
20260506084553 16 238 14.5 24.1 0.00 0.00 0.00 1 1008.0
20260506083043 16 304 14.5 29.0 0.00 0.00 0.00 1 1008.0
20260506081538 16 240 12.9 30.6 0.00 0.00 0.00 1 1008.0
20260506073025 17 255 17.7 35.4 0.00 0.00 0.00 17 1008.1
20260506071521 17 194 12.9 29.0 0.00 0.00 0.00 23 1007.9
20260506061509 17 212 14.5 30.6 0.00 0.00 0.00 43 1007.6
20260506050105 17 266 12.9 24.1 0.00 0.00 0.00 48 1008.0
20260506044635 17 247 17.7 37.0 0.00 0.00 0.00 48 1007.9
20260506043055 17 241 22.5 43.5 0.00 0.00 0.00 48 1008.1
20260506041553 17 273 19.3 37.0 0.00 0.00 0.00 49 1007.9